| time (UTC) | temp F | wind direction | speed MPH | gust MPH | rain 1hr in | rain 24hr in | rain mn in | humidity % | barometer mb |
| 20260505123450 | 56 | 53 | 0.0 | 0.0 | 0.00 | 0.00 | 0.00 | 86 | 1010.9 |
| 20260505122946 | 56 | 53 | 0.0 | 1.0 | 0.00 | 0.00 | 0.00 | 86 | 1010.9 |
| 20260505122447 | 56 | 53 | 0.0 | 1.0 | 0.00 | 0.00 | 0.00 | 86 | 1010.9 |
| 20260505121948 | 56 | 53 | 0.0 | 2.0 | 0.00 | 0.00 | 0.00 | 86 | 1010.9 |
| 20260505121445 | 56 | 53 | 1.0 | 2.0 | 0.00 | 0.00 | 0.00 | 87 | 1011.0 |
| 20260505120945 | 56 | 53 | 1.0 | 2.0 | 0.00 | 0.00 | 0.00 | 89 | 1011.0 |
| 20260505120915 | 55 | 53 | 1.0 | 1.0 | 0.00 | 0.00 | 0.00 | 89 | 1011.0 |
| 20260505115931 | 55 | 53 | 1.0 | 1.0 | 0.00 | 0.00 | 0.00 | 90 | 1011.0 |
| 20260505115429 | 55 | 53 | 1.0 | 2.0 | 0.00 | 0.00 | 0.00 | 91 | 1011.0 |
| 20260505115148 | 54 | 53 | 1.0 | 2.0 | 0.00 | 0.00 | 0.00 | 91 | 1011.1 |
| 20260505114908 | 54 | 53 | 1.0 | 2.0 | 0.00 | 0.00 | 0.00 | 91 | 1011.1 |
| 20260505113925 | 54 | 53 | 2.0 | 3.0 | 0.00 | 0.00 | 0.00 | 91 | 1011.2 |
| 20260505113426 | 54 | 53 | 2.0 | 4.0 | 0.00 | 0.00 | 0.00 | 91 | 1011.2 |
| 20260505112922 | 54 | 44 | 2.0 | 4.0 | 0.00 | 0.00 | 0.00 | 91 | 1011.1 |
| 20260505112421 | 54 | 36 | 2.0 | 4.0 | 0.00 | 0.00 | 0.00 | 91 | 1011.1 |
| 20260505111918 | 54 | 58 | 1.0 | 2.0 | 0.00 | 0.00 | 0.00 | 91 | 1011.0 |
| 20260505111418 | 54 | 301 | 2.0 | 3.0 | 0.00 | 0.00 | 0.00 | 90 | 1010.9 |
| 20260505111139 | 54 | 302 | 2.0 | 4.0 | 0.00 | 0.00 | 0.00 | 90 | 1010.7 |
| 20260505110415 | 54 | 52 | 3.0 | 4.0 | 0.00 | 0.00 | 0.00 | 89 | 1010.7 |
| 20260505101901 | 53 | 59 | 0.0 | 2.0 | 0.00 | 0.00 | 0.00 | 91 | 1010.1 |
| 20260505101355 | 53 | 59 | 0.0 | 1.0 | 0.00 | 0.00 | 0.00 | 91 | 1010.2 |
| 20260505100850 | 53 | 59 | 0.0 | 2.0 | 0.00 | 0.00 | 0.00 | 92 | 1010.2 |
| 20260505100344 | 53 | 57 | 1.0 | 2.0 | 0.00 | 0.00 | 0.00 | 92 | 1010.0 |
| 20260505100318 | 53 | 57 | 1.0 | 2.0 | 0.00 | 0.00 | 0.00 | 92 | 1010.0 |
| 20260505095331 | 53 | 57 | 1.0 | 2.0 | 0.00 | 0.00 | 0.00 | 92 | 1009.9 |
| 20260505094824 | 53 | 57 | 2.0 | 2.0 | 0.00 | 0.00 | 0.00 | 92 | 1010.0 |
| 20260505094319 | 53 | 333 | 2.0 | 3.0 | 0.00 | 0.00 | 0.00 | 92 | 1009.9 |
| 20260505094257 | 53 | 308 | 2.0 | 3.0 | 0.00 | 0.00 | 0.00 | 92 | 1009.9 |
| 20260505093307 | 53 | 293 | 3.0 | 3.0 | 0.00 | 0.00 | 0.00 | 92 | 1009.9 |
| 20260505092800 | 53 | 303 | 3.0 | 3.0 | 0.00 | 0.00 | 0.00 | 91 | 1009.9 |
| 20260505092255 | 53 | 322 | 2.0 | 3.0 | 0.00 | 0.00 | 0.00 | 91 | 1010.1 |
| 20260505091751 | 53 | 74 | 1.0 | 3.0 | 0.00 | 0.00 | 0.00 | 91 | 1010.1 |
| 20260505091243 | 53 | 76 | 1.0 | 3.0 | 0.00 | 0.00 | 0.00 | 91 | 1010.0 |
| 20260505090737 | 53 | 76 | 2.0 | 4.0 | 0.00 | 0.00 | 0.00 | 91 | 1009.9 |
| 20260505090231 | 53 | 321 | 2.0 | 4.0 | 0.00 | 0.00 | 0.00 | 91 | 1009.9 |
| 20260505085725 | 53 | 61 | 2.0 | 3.0 | 0.00 | 0.00 | 0.00 | 91 | 1010.0 |
| 20260505085219 | 53 | 61 | 2.0 | 4.0 | 0.00 | 0.00 | 0.00 | 91 | 1010.0 |
| 20260505084713 | 53 | 61 | 2.0 | 4.0 | 0.00 | 0.00 | 0.00 | 92 | 1010.0 |
| 20260505084207 | 53 | 61 | 2.0 | 3.0 | 0.00 | 0.00 | 0.00 | 92 | 1010.1 |
| 20260505083701 | 53 | 61 | 2.0 | 3.0 | 0.00 | 0.00 | 0.00 | 92 | 1010.1 |
| 20260505083155 | 53 | 78 | 2.0 | 3.0 | 0.00 | 0.00 | 0.00 | 92 | 1010.1 |
| 20260505082648 | 53 | 56 | 2.0 | 4.0 | 0.00 | 0.00 | 0.00 | 92 | 1010.2 |
| 20260505082150 | 53 | 341 | 2.0 | 4.0 | 0.00 | 0.00 | 0.00 | 92 | 1010.1 |
| 20260505081911 | 53 | 317 | 3.0 | 4.0 | 0.00 | 0.00 | 0.00 | 93 | 1010.1 |
| 20260505081149 | 52 | 309 | 2.0 | 4.0 | 0.00 | 0.00 | 0.00 | 93 | 1010.0 |
| 20260505080648 | 52 | 314 | 0.0 | 4.0 | 0.00 | 0.00 | 0.00 | 93 | 1010.1 |
| 20260505080149 | 51 | 130 | 0.0 | 1.0 | 0.00 | 0.00 | 0.00 | 92 | 1010.0 |
| 20260505075649 | 51 | 130 | 0.0 | 1.0 | 0.00 | 0.00 | 0.00 | 92 | 1009.9 |
| 20260505075416 | 51 | 130 | 0.0 | 1.0 | 0.00 | 0.00 | 0.00 | 91 | 1010.0 |
| 20260505075134 | 52 | 128 | 0.0 | 0.0 | 0.00 | 0.00 | 0.00 | 91 | 1010.0 |
| 20260505074147 | 52 | 38 | 0.0 | 0.0 | 0.00 | 0.00 | 0.00 | 91 | 1010.0 |
| 20260505073645 | 52 | 124 | 0.0 | 1.0 | 0.00 | 0.00 | 0.00 | 90 | 1010.1 |
| 20260505073409 | 52 | 124 | 0.0 | 1.0 | 0.00 | 0.00 | 0.00 | 90 | 1010.0 |
| 20260505072643 | 52 | 123 | 1.0 | 2.0 | 0.00 | 0.00 | 0.00 | 89 | 1010.0 |
| 20260505072143 | 53 | 59 | 2.0 | 3.0 | 0.00 | 0.00 | 0.00 | 90 | 1010.0 |
| 20260505071642 | 53 | 59 | 2.0 | 3.0 | 0.00 | 0.00 | 0.00 | 89 | 1010.0 |
| 20260505071139 | 53 | 59 | 2.0 | 3.0 | 0.00 | 0.00 | 0.00 | 89 | 1010.1 |
| 20260505070913 | 53 | 59 | 2.0 | 3.0 | 0.00 | 0.00 | 0.00 | 89 | 1010.0 |
| 20260505070400 | 53 | 59 | 2.0 | 3.0 | 0.00 | 0.00 | 0.00 | 89 | 1010.1 |
| 20260505065641 | 53 | 59 | 2.0 | 3.0 | 0.00 | 0.00 | 0.00 | 88 | 1010.2 |
| 20260505065402 | 53 | 59 | 2.0 | 3.0 | 0.00 | 0.00 | 0.00 | 88 | 1010.2 |
| 20260505064638 | 54 | 59 | 3.0 | 5.0 | 0.00 | 0.00 | 0.00 | 88 | 1010.1 |
| 20260505064354 | 54 | 59 | 3.0 | 5.0 | 0.00 | 0.00 | 0.00 | 87 | 1010.2 |
| 20260505063634 | 54 | 70 | 3.0 | 5.0 | 0.00 | 0.00 | 0.00 | 87 | 1010.2 |
| 20260505063132 | 54 | 42 | 4.0 | 6.0 | 0.00 | 0.00 | 0.00 | 87 | 1010.2 |
| 20260505062632 | 54 | 41 | 3.0 | 6.0 | 0.00 | 0.00 | 0.00 | 87 | 1010.3 |
| 20260505062133 | 54 | 42 | 2.0 | 5.0 | 0.00 | 0.00 | 0.00 | 87 | 1010.3 |
| 20260505061632 | 54 | 59 | 2.0 | 3.0 | 0.00 | 0.00 | 0.00 | 87 | 1010.3 |
| 20260505061132 | 54 | 60 | 1.0 | 3.0 | 0.00 | 0.00 | 0.00 | 87 | 1010.4 |
| 20260505060631 | 54 | 60 | 1.0 | 3.0 | 0.00 | 0.00 | 0.00 | 87 | 1010.4 |
| 20260505060132 | 54 | 60 | 1.0 | 3.0 | 0.00 | 0.00 | 0.00 | 87 | 1010.3 |
| 20260505055631 | 54 | 60 | 1.0 | 3.0 | 0.00 | 0.00 | 0.00 | 87 | 1010.3 |
| 20260505055134 | 54 | 60 | 1.0 | 3.0 | 0.00 | 0.00 | 0.00 | 87 | 1010.3 |
| 20260505054632 | 54 | 60 | 1.0 | 3.0 | 0.00 | 0.00 | 0.00 | 86 | 1010.4 |
| 20260505054132 | 54 | 81 | 1.0 | 3.0 | 0.00 | 0.00 | 0.00 | 86 | 1010.5 |
| 20260505053633 | 54 | 81 | 2.0 | 3.0 | 0.00 | 0.00 | 0.00 | 86 | 1010.5 |
| 20260505053131 | 54 | 80 | 3.0 | 6.0 | 0.00 | 0.00 | 0.00 | 85 | 1010.6 |
| 20260505052632 | 54 | 64 | 3.0 | 6.0 | 0.00 | 0.00 | 0.00 | 85 | 1010.6 |
| 20260505052133 | 54 | 61 | 4.0 | 7.0 | 0.00 | 0.00 | 0.00 | 85 | 1010.5 |
| 20260505051634 | 54 | 59 | 4.0 | 7.0 | 0.00 | 0.00 | 0.00 | 85 | 1010.6 |
| 20260505051132 | 54 | 57 | 3.0 | 7.0 | 0.00 | 0.00 | 0.00 | 85 | 1010.6 |
| 20260505050631 | 54 | 65 | 2.0 | 3.0 | 0.00 | 0.00 | 0.00 | 86 | 1010.6 |
| 20260505050131 | 53 | 64 | 2.0 | 3.0 | 0.00 | 0.00 | 0.00 | 86 | 1010.6 |
| 20260505041128 | 55 | 44 | 2.0 | 5.0 | 0.00 | 0.00 | 0.00 | 83 | 1010.9 |
| 20260505040854 | 55 | 65 | 1.0 | 4.0 | 0.00 | 0.00 | 0.00 | 82 | 1011.0 |
| 20260505040123 | 55 | 101 | 1.0 | 4.0 | 0.00 | 0.00 | 0.00 | 82 | 1011.0 |
| 20260505035622 | 55 | 101 | 2.0 | 4.0 | 0.00 | 0.00 | 0.00 | 81 | 1010.9 |
| 20260505035336 | 55 | 82 | 3.0 | 5.0 | 0.00 | 0.00 | 0.00 | 81 | 1010.9 |
| 20260505034615 | 55 | 63 | 4.0 | 9.0 | 0.00 | 0.00 | 0.00 | 81 | 1010.9 |
| 20260505034113 | 56 | 65 | 5.0 | 9.0 | 0.00 | 0.00 | 0.00 | 80 | 1010.9 |
| 20260505033612 | 56 | 55 | 6.0 | 9.0 | 0.00 | 0.00 | 0.00 | 80 | 1010.8 |
| 20260505033110 | 56 | 51 | 7.0 | 9.0 | 0.00 | 0.00 | 0.00 | 80 | 1010.8 |
| 20260505032606 | 56 | 66 | 5.0 | 8.0 | 0.00 | 0.00 | 0.00 | 79 | 1010.9 |
| 20260505032106 | 56 | 75 | 3.0 | 7.0 | 0.00 | 0.00 | 0.00 | 78 | 1010.8 |
| 20260505032058 | 56 | 80 | 2.0 | 6.0 | 0.00 | 0.00 | 0.00 | 78 | 1010.8 |
| 20260505031107 | 56 | 94 | 3.0 | 7.0 | 0.00 | 0.00 | 0.00 | 78 | 1010.7 |
| 20260505030606 | 56 | 93 | 4.0 | 7.0 | 0.00 | 0.00 | 0.00 | 78 | 1010.8 |
| 20260505030106 | 56 | 77 | 3.0 | 7.0 | 0.00 | 0.00 | 0.00 | 78 | 1010.8 |
| 20260505025601 | 56 | 86 | 2.0 | 10.0 | 0.00 | 0.00 | 0.00 | 78 | 1010.9 |
| 20260505025054 | 56 | 88 | 3.0 | 10.0 | 0.00 | 0.00 | 0.00 | 78 | 1010.9 |
| 20260505024548 | 56 | 89 | 4.0 | 10.0 | 0.00 | 0.00 | 0.00 | 77 | 1010.9 |
| 20260505024040 | 56 | 94 | 7.0 | 16.0 | 0.00 | 0.00 | 0.00 | 77 | 1010.9 |
| 20260505023535 | 56 | 113 | 9.0 | 16.0 | 0.00 | 0.00 | 0.00 | 76 | 1010.9 |
| 20260505023030 | 56 | 84 | 10.0 | 16.0 | 0.00 | 0.00 | 0.00 | 76 | 1010.9 |
| 20260505022523 | 57 | 65 | 11.0 | 16.0 | 0.00 | 0.00 | 0.00 | 75 | 1010.9 |
| 20260505022017 | 57 | 76 | 9.0 | 15.0 | 0.00 | 0.00 | 0.00 | 75 | 1011.0 |
| 20260505021511 | 56 | 73 | 8.0 | 16.0 | 0.00 | 0.00 | 0.00 | 76 | 1011.0 |
| 20260505021005 | 56 | 74 | 8.0 | 16.0 | 0.00 | 0.00 | 0.00 | 75 | 1011.0 |
| 20260505020459 | 56 | 49 | 7.0 | 14.0 | 0.00 | 0.00 | 0.00 | 76 | 1010.9 |
| 20260505015953 | 56 | 71 | 5.0 | 9.0 | 0.00 | 0.00 | 0.00 | 77 | 1010.8 |
| 20260505015448 | 56 | 61 | 4.0 | 8.0 | 0.00 | 0.00 | 0.00 | 77 | 1010.7 |
| 20260505014941 | 56 | 99 | 3.0 | 9.0 | 0.00 | 0.00 | 0.00 | 77 | 1010.8 |
| 20260505014655 | 56 | 81 | 4.0 | 11.0 | 0.00 | 0.00 | 0.00 | 76 | 1010.8 |
| 20260505014148 | 56 | 86 | 5.0 | 16.0 | 0.00 | 0.00 | 0.00 | 77 | 1010.8 |
| 20260505013648 | 56 | 99 | 7.0 | 19.0 | 0.00 | 0.00 | 0.00 | 76 | 1010.7 |
| 20260505012917 | 56 | 95 | 9.0 | 19.0 | 0.00 | 0.00 | 0.00 | 76 | 1010.7 |
| 20260505012411 | 56 | 96 | 8.0 | 19.0 | 0.00 | 0.00 | 0.00 | 77 | 1010.5 |
| 20260505011905 | 56 | 143 | 5.0 | 19.0 | 0.00 | 0.00 | 0.00 | 78 | 1010.6 |
| 20260505011359 | 55 | 265 | 5.0 | 16.0 | 0.00 | 0.00 | 0.00 | 79 | 1010.5 |
| 20260505010853 | 56 | 70 | 9.0 | 15.0 | 0.00 | 0.00 | 0.00 | 78 | 1010.5 |
| 20260505010346 | 56 | 71 | 13.0 | 21.0 | 0.00 | 0.00 | 0.00 | 77 | 1010.4 |
| 20260505010104 | 56 | 72 | 14.0 | 26.0 | 0.00 | 0.00 | 0.00 | 76 | 1010.4 |
| 20260505005335 | 56 | 80 | 12.0 | 26.0 | 0.00 | 0.00 | 0.00 | 76 | 1010.4 |
| 20260505005053 | 56 | 136 | 8.0 | 21.0 | 0.00 | 0.00 | 0.00 | 78 | 1010.2 |
| 20260505004328 | 55 | 43 | 5.0 | 11.0 | 0.00 | 0.00 | 0.00 | 79 | 1010.3 |
| 20260505003813 | 54 | 78 | 3.0 | 10.0 | 0.00 | 0.00 | 0.00 | 81 | 1010.2 |
| 20260505003307 | 54 | 62 | 1.0 | 6.0 | 0.00 | 0.00 | 0.00 | 82 | 1010.1 |
| 20260505002802 | 54 | 120 | 1.0 | 7.0 | 0.00 | 0.00 | 0.00 | 82 | 1010.0 |
| 20260505002303 | 54 | 125 | 2.0 | 7.0 | 0.00 | 0.00 | 0.00 | 83 | 1009.8 |
| 20260505001803 | 54 | 162 | 2.0 | 5.0 | 0.00 | 0.00 | 0.00 | 82 | 1009.7 |
| 20260505001527 | 54 | 160 | 2.0 | 5.0 | 0.00 | 0.00 | 0.00 | 83 | 1009.5 |
| 20260505000801 | 54 | 163 | 1.0 | 4.0 | 0.00 | 0.00 | 0.00 | 82 | 1009.4 |
| 20260505000300 | 54 | 101 | 1.0 | 5.0 | 0.00 | 0.00 | 0.00 | 82 | 1009.3 |
| 20260504235802 | 54 | 78 | 5.0 | 16.0 | 0.00 | 0.00 | 0.00 | 82 | 1009.2 |
| 20260504235301 | 55 | 77 | 9.0 | 16.0 | 0.00 | 0.00 | 0.00 | 82 | 1009.1 |
| 20260504234800 | 55 | 69 | 12.0 | 17.0 | 0.00 | 0.00 | 0.00 | 81 | 1009.1 |
| 20260504234300 | 55 | 57 | 13.0 | 17.0 | 0.00 | 0.00 | 0.00 | 81 | 1009.1 |
| 20260504233801 | 55 | 69 | 14.0 | 17.0 | 0.00 | 0.00 | 0.00 | 80 | 1009.1 |
| 20260504233301 | 55 | 50 | 15.0 | 18.0 | 0.00 | 0.00 | 0.00 | 80 | 1008.9 |
| 20260504232801 | 55 | 53 | 14.0 | 18.0 | 0.00 | 0.00 | 0.00 | 80 | 1008.8 |
| 20260504232301 | 55 | 55 | 15.0 | 19.0 | 0.00 | 0.00 | 0.00 | 79 | 1008.8 |
| 20260504231800 | 56 | 52 | 16.0 | 19.0 | 0.00 | 0.00 | 0.00 | 78 | 1008.7 |
| 20260504231300 | 56 | 61 | 16.0 | 19.0 | 0.00 | 0.00 | 0.00 | 77 | 1008.6 |
| 20260504230800 | 56 | 55 | 16.0 | 19.0 | 0.00 | 0.00 | 0.00 | 77 | 1008.6 |
| 20260504230259 | 56 | 53 | 16.0 | 19.0 | 0.00 | 0.00 | 0.00 | 77 | 1008.6 |
| 20260504225756 | 56 | 49 | 16.0 | 20.0 | 0.00 | 0.00 | 0.00 | 77 | 1008.5 |
| 20260504225520 | 56 | 57 | 17.0 | 21.0 | 0.00 | 0.00 | 0.00 | 77 | 1008.6 |
| 20260504224757 | 56 | 44 | 18.0 | 21.0 | 0.00 | 0.00 | 0.00 | 76 | 1008.6 |
| 20260504224257 | 56 | 49 | 19.0 | 23.0 | 0.00 | 0.00 | 0.00 | 75 | 1008.6 |
| 20260504223757 | 57 | 57 | 19.0 | 23.0 | 0.00 | 0.00 | 0.00 | 74 | 1008.5 |
| 20260504223257 | 56 | 52 | 18.0 | 21.0 | 0.00 | 0.00 | 0.00 | 75 | 1008.6 |
| 20260504222757 | 56 | 43 | 15.0 | 20.0 | 0.00 | 0.00 | 0.00 | 76 | 1008.6 |
| 20260504222256 | 56 | 59 | 14.0 | 17.0 | 0.00 | 0.00 | 0.00 | 77 | 1008.8 |
| 20260504221756 | 56 | 49 | 15.0 | 19.0 | 0.00 | 0.00 | 0.00 | 76 | 1008.8 |
| 20260504221257 | 56 | 46 | 16.0 | 19.0 | 0.00 | 0.00 | 0.00 | 76 | 1008.8 |
| 20260504220756 | 56 | 53 | 16.0 | 19.0 | 0.00 | 0.00 | 0.00 | 76 | 1008.8 |
| 20260504220255 | 56 | 55 | 17.0 | 20.0 | 0.00 | 0.00 | 0.00 | 76 | 1008.8 |
| 20260504215757 | 57 | 51 | 18.0 | 22.0 | 0.00 | 0.00 | 0.00 | 75 | 1008.9 |
| 20260504215516 | 57 | 51 | 19.0 | 22.0 | 0.00 | 0.00 | 0.00 | 74 | 1008.8 |
| 20260504214751 | 57 | 41 | 19.0 | 24.0 | 0.00 | 0.00 | 0.00 | 73 | 1008.8 |
| 20260504214252 | 57 | 65 | 19.0 | 24.0 | 0.00 | 0.00 | 0.00 | 74 | 1008.8 |
| 20260504213750 | 57 | 44 | 20.0 | 24.0 | 0.00 | 0.00 | 0.00 | 74 | 1008.8 |
| 20260504213250 | 57 | 58 | 18.0 | 24.0 | 0.00 | 0.00 | 0.00 | 74 | 1008.8 |
| 20260504212751 | 57 | 55 | 17.0 | 21.0 | 0.00 | 0.00 | 0.00 | 74 | 1008.8 |
| 20260504212517 | 57 | 38 | 16.0 | 21.0 | 0.00 | 0.00 | 0.00 | 75 | 1008.8 |
| 20260504211750 | 57 | 52 | 16.0 | 20.0 | 0.00 | 0.00 | 0.00 | 74 | 1008.9 |
| 20260504211249 | 57 | 53 | 17.0 | 20.0 | 0.00 | 0.00 | 0.00 | 74 | 1008.9 |
| 20260504210751 | 58 | 49 | 17.0 | 20.0 | 0.00 | 0.00 | 0.00 | 73 | 1008.9 |
| 20260504210246 | 58 | 57 | 18.0 | 21.0 | 0.00 | 0.00 | 0.00 | 72 | 1008.9 |
| 20260504205745 | 58 | 57 | 18.0 | 22.0 | 0.00 | 0.00 | 0.00 | 72 | 1008.8 |
| 20260504205248 | 58 | 51 | 18.0 | 23.0 | 0.00 | 0.00 | 0.00 | 71 | 1008.9 |
| 20260504204746 | 58 | 56 | 14.0 | 23.0 | 0.00 | 0.00 | 0.00 | 71 | 1008.9 |
| 20260504204246 | 56 | 52 | 9.0 | 18.0 | 0.00 | 0.00 | 0.00 | 76 | 1009.0 |
| 20260504203745 | 56 | 52 | 10.0 | 14.0 | 0.00 | 0.00 | 0.00 | 77 | 1008.9 |
| 20260504203245 | 56 | 57 | 12.0 | 17.0 | 0.00 | 0.00 | 0.00 | 76 | 1009.0 |
| 20260504202746 | 56 | 49 | 13.0 | 17.0 | 0.00 | 0.00 | 0.00 | 75 | 1009.0 |
| 20260504202247 | 57 | 59 | 14.0 | 17.0 | 0.00 | 0.00 | 0.00 | 75 | 1009.0 |
| 20260504202008 | 57 | 52 | 14.0 | 17.0 | 0.00 | 0.00 | 0.00 | 74 | 1009.0 |
| 20260504201242 | 57 | 46 | 14.0 | 17.0 | 0.00 | 0.00 | 0.00 | 75 | 1009.0 |
| 20260504200742 | 57 | 67 | 14.0 | 17.0 | 0.00 | 0.00 | 0.00 | 74 | 1009.0 |
| 20260504200243 | 57 | 62 | 16.0 | 20.0 | 0.00 | 0.00 | 0.00 | 74 | 1009.0 |
| 20260504195739 | 57 | 74 | 18.0 | 20.0 | 0.00 | 0.00 | 0.00 | 72 | 1009.1 |
| 20260504195238 | 57 | 64 | 17.0 | 20.0 | 0.00 | 0.00 | 0.00 | 72 | 1009.1 |
| 20260504194738 | 57 | 70 | 17.0 | 21.0 | 0.00 | 0.00 | 0.00 | 72 | 1009.1 |
| 20260504194237 | 57 | 63 | 16.0 | 21.0 | 0.00 | 0.00 | 0.00 | 71 | 1009.2 |
| 20260504193736 | 57 | 63 | 15.0 | 19.0 | 0.00 | 0.00 | 0.00 | 73 | 1009.1 |
| 20260504193234 | 57 | 73 | 17.0 | 19.0 | 0.00 | 0.00 | 0.00 | 72 | 1009.2 |
| 20260504192736 | 57 | 57 | 17.0 | 19.0 | 0.00 | 0.00 | 0.00 | 73 | 1009.2 |
| 20260504192235 | 56 | 63 | 17.0 | 19.0 | 0.00 | 0.00 | 0.00 | 74 | 1009.2 |
| 20260504191950 | 56 | 65 | 16.0 | 19.0 | 0.00 | 0.00 | 0.00 | 74 | 1009.3 |
| 20260504191234 | 56 | 64 | 15.0 | 18.0 | 0.00 | 0.00 | 0.00 | 74 | 1009.3 |
| 20260504190733 | 56 | 62 | 15.0 | 18.0 | 0.00 | 0.00 | 0.00 | 74 | 1009.4 |
| 20260504190543 | 56 | 62 | 14.0 | 17.0 | 0.00 | 0.00 | 0.00 | 75 | 1009.4 |
| 20260504185226 | 56 | 64 | 12.0 | 17.0 | 0.00 | 0.00 | 0.00 | 76 | 1009.4 |
| 20260504184720 | 56 | 63 | 12.0 | 15.0 | 0.00 | 0.00 | 0.00 | 75 | 1009.5 |
| 20260504184214 | 56 | 53 | 13.0 | 16.0 | 0.00 | 0.00 | 0.00 | 75 | 1009.6 |
| 20260504183708 | 56 | 61 | 14.0 | 16.0 | 0.00 | 0.00 | 0.00 | 74 | 1009.8 |
| 20260504183202 | 56 | 74 | 14.0 | 16.0 | 0.00 | 0.00 | 0.00 | 73 | 1009.8 |
| 20260504182656 | 56 | 68 | 12.0 | 15.0 | 0.00 | 0.00 | 0.00 | 74 | 1009.9 |
| 20260504182150 | 55 | 63 | 11.0 | 14.0 | 0.00 | 0.00 | 0.00 | 77 | 1010.0 |
| 20260504181645 | 55 | 71 | 11.0 | 14.0 | 0.00 | 0.00 | 0.00 | 76 | 1009.9 |
| 20260504181140 | 55 | 61 | 11.0 | 13.0 | 0.00 | 0.00 | 0.00 | 77 | 1010.0 |
| 20260504180633 | 55 | 63 | 11.0 | 15.0 | 0.00 | 0.00 | 0.00 | 76 | 1010.1 |
| 20260504180347 | 56 | 82 | 11.0 | 15.0 | 0.00 | 0.00 | 0.00 | 74 | 1010.1 |
| 20260504175621 | 56 | 75 | 11.0 | 16.0 | 0.00 | 0.00 | 0.00 | 72 | 1010.1 |
| 20260504175115 | 57 | 58 | 10.0 | 16.0 | 0.00 | 0.00 | 0.00 | 71 | 1010.2 |
| 20260504174609 | 57 | 77 | 11.0 | 16.0 | 0.00 | 0.00 | 0.00 | 69 | 1010.3 |
| 20260504174336 | 57 | 69 | 10.0 | 16.0 | 0.00 | 0.00 | 0.00 | 71 | 1010.3 |
| 20260504173556 | 57 | 81 | 9.0 | 15.0 | 0.00 | 0.00 | 0.00 | 71 | 1010.4 |
| 20260504173052 | 57 | 74 | 10.0 | 15.0 | 0.00 | 0.00 | 0.00 | 71 | 1010.4 |
| 20260504172543 | 57 | 103 | 11.0 | 16.0 | 0.00 | 0.00 | 0.00 | 71 | 1010.4 |
| 20260504172038 | 57 | 98 | 12.0 | 17.0 | 0.00 | 0.00 | 0.00 | 68 | 1010.4 |
| 20260504171532 | 57 | 88 | 12.0 | 18.0 | 0.00 | 0.00 | 0.00 | 68 | 1010.5 |
| 20260504171027 | 57 | 69 | 12.0 | 18.0 | 0.00 | 0.00 | 0.00 | 69 | 1010.5 |
| 20260504170520 | 57 | 80 | 12.0 | 18.0 | 0.00 | 0.00 | 0.00 | 68 | 1010.5 |
| 20260504170238 | 56 | 89 | 11.0 | 16.0 | 0.00 | 0.00 | 0.00 | 70 | 1010.5 |
| 20260504160421 | 59 | 51 | 11.0 | 19.0 | 0.00 | 0.00 | 0.00 | 60 | 1011.4 |
| 20260504151133 | 56 | 109 | 9.0 | 18.0 | 0.00 | 0.00 | 0.00 | 68 | 1012.0 |
| 20260504150415 | 56 | 98 | 10.0 | 18.0 | 0.00 | 0.00 | 0.00 | 67 | 1012.0 |
| 20260504140909 | 56 | 104 | 13.0 | 24.0 | 0.00 | 0.00 | 0.00 | 58 | 1012.3 |
| 20260504140409 | 56 | 115 | 12.0 | 24.0 | 0.00 | 0.00 | 0.00 | 58 | 1012.3 |
| 20260504130410 | 54 | 93 | 8.0 | 17.0 | 0.00 | 0.00 | 0.00 | 72 | 1012.6 |